Red Oak, IA

6:56 PM CDT on September 28, 2016 (GMT -0500)
Red Oak Municipal

Weather History for KRDK - May, 2013

Change the Weather History Date:

Friday, May 10, 2013

  Actual Average Record
Temperature  
Mean Temperature 60 °F -  
Max Temperature 71 °F 74 °F 98 °F (2011)
Min Temperature 50 °F 48 °F 33 °F (1981)
Degree Days  
Heating Degree Days 4    
Growing Degree Days 10 (Base 50)    
Moisture  
Dew Point 47 °F    
Average Humidity 67    
Maximum Humidity 82    
Minimum Humidity 35    
Precipitation  
Precipitation 0.00 in - - ()
Sea Level Pressure  
Sea Level Pressure 30.03 in    
Wind  
Wind Speed 11 mph (North)    
Max Wind Speed 17 mph    
Max Gust Speed 22 mph    
Visibility 10 miles    
Events      
Averages and records for this station are not official NWS values.
T = Trace of Precipitation, MM = Missing Value Source: NWS Daily Summary

Daily Weather History Graph

Daily Weather History Graph

Search for Another Location

Airport or City:

Trip Planner

Search our weather history database for the weather conditions in past years. The results will help you decide how hot, cold, wet, or windy it might be!

Date:

Astronomy

May. 10, 2013 Rise Set
Actual Time 6:08 AM CDT 8:27 PM CDT
Civil Twilight 5:37 AM CDT 8:58 PM CDT
Nautical Twilight 4:59 AM CDT 9:36 PM CDT
Astronomical Twilight 4:17 AM CDT 10:18 PM CDT
Moon 6:32 AM CDT (5/10) 9:17 PM CDT (5/10)
Length of Visible Light 15h 21m
Length of Day
14h 19m
New Moon, 0% of the Moon is Illuminated
May 10
New Moon
May 17
First Quarter
May 24
Full
May 31
Last Quarter
Jun 8
New

Hourly Weather History & Observations

Time (CDT) Temp. Dew Point Humidity Pressure Visibility Wind Dir Wind Speed Gust Speed Precip Events Conditions
12:15 AM 57.2 °F 51.8 °F 82% 29.98 in 10.0 mi North 13.8 mph - N/A   Overcast
1:15 AM 55.4 °F 50.0 °F 82% 29.98 in 10.0 mi North 9.2 mph 16.1 mph N/A   Scattered Clouds
1:55 AM 55.4 °F 48.2 °F 77% 29.98 in 10.0 mi North 17.3 mph 21.9 mph N/A   Overcast
2:15 AM 53.6 °F 48.2 °F 82% 29.98 in 10.0 mi North 11.5 mph 19.6 mph N/A   Overcast
2:35 AM 53.6 °F 48.2 °F 82% 29.99 in 10.0 mi North 12.7 mph - N/A   Overcast
2:55 AM 53.6 °F 48.2 °F 82% 29.99 in 10.0 mi North 12.7 mph - N/A   Overcast
3:15 AM 53.6 °F 48.2 °F 82% 30.00 in 10.0 mi North 16.1 mph 21.9 mph N/A   Overcast
3:35 AM 51.8 °F 46.4 °F 82% 30.00 in 10.0 mi North 13.8 mph 20.7 mph N/A   Overcast
3:55 AM 51.8 °F 46.4 °F 82% 30.01 in 10.0 mi North 15.0 mph 19.6 mph N/A   Overcast
4:15 AM 51.8 °F 46.4 °F 82% 30.01 in 10.0 mi North 12.7 mph - N/A   Overcast
4:35 AM 51.8 °F 46.4 °F 82% 30.02 in 10.0 mi North 10.4 mph - N/A   Overcast
4:55 AM 51.8 °F 46.4 °F 82% 30.02 in 10.0 mi North 15.0 mph - N/A   Overcast
5:15 AM 51.8 °F 46.4 °F 82% 30.02 in 10.0 mi North 10.4 mph - N/A   Overcast
5:35 AM 51.8 °F 46.4 °F 82% 30.02 in 10.0 mi North 9.2 mph - N/A   Overcast
5:55 AM 51.8 °F 46.4 °F 82% 30.03 in 10.0 mi North 10.4 mph - N/A   Overcast
6:15 AM 51.8 °F 46.4 °F 82% 30.03 in 10.0 mi North 10.4 mph - N/A   Overcast
6:35 AM 51.8 °F 46.4 °F 82% 30.04 in 10.0 mi North 11.5 mph - N/A   Overcast
7:15 AM 51.8 °F 46.4 °F 82% 30.05 in 10.0 mi North 10.4 mph - N/A   Overcast
7:35 AM 51.8 °F 46.4 °F 82% 30.06 in 10.0 mi North 11.5 mph - N/A   Overcast
8:15 AM 51.8 °F 46.4 °F 82% 30.06 in 10.0 mi North 10.4 mph 18.4 mph N/A   Overcast
8:35 AM 51.8 °F 46.4 °F 82% 30.07 in 10.0 mi NNW 11.5 mph - N/A   Overcast
8:55 AM 50.0 °F 44.6 °F 82% 30.07 in 10.0 mi NNW 9.2 mph - N/A   Overcast
9:15 AM 50.0 °F 44.6 °F 82% 30.07 in 10.0 mi North 12.7 mph - N/A   Overcast
9:35 AM 51.8 °F 44.6 °F 76% 30.07 in 10.0 mi North 15.0 mph - N/A   Overcast
9:55 AM 51.8 °F 46.4 °F 82% 30.06 in 10.0 mi North 11.5 mph - N/A   Overcast
10:15 AM 51.8 °F 46.4 °F 82% 30.07 in 10.0 mi North 12.7 mph 16.1 mph N/A   Overcast
10:35 AM 53.6 °F 48.2 °F 82% 30.07 in 10.0 mi North 13.8 mph - N/A   Overcast
10:55 AM 57.2 °F 48.2 °F 72% 30.07 in 10.0 mi North 11.5 mph - N/A   Mostly Cloudy
11:15 AM 57.2 °F 48.2 °F 72% 30.07 in 10.0 mi NNW 11.5 mph 17.3 mph N/A   Mostly Cloudy
11:35 AM 57.2 °F 48.2 °F 72% 30.07 in 10.0 mi NNW 10.4 mph 13.8 mph N/A   Mostly Cloudy
12:15 PM 62.6 °F 51.8 °F 68% 30.07 in 10.0 mi North 10.4 mph 17.3 mph N/A   Scattered Clouds
12:35 PM 62.6 °F 50.0 °F 63% 30.07 in 10.0 mi NNE 11.5 mph 16.1 mph N/A   Mostly Cloudy
12:55 PM 64.4 °F 50.0 °F 59% 30.07 in 10.0 mi North 10.4 mph 17.3 mph N/A   Scattered Clouds
1:15 PM 64.4 °F 50.0 °F 59% 30.06 in 10.0 mi North 12.7 mph 18.4 mph N/A   Scattered Clouds
1:35 PM 66.2 °F 50.0 °F 56% 30.06 in 10.0 mi North 9.2 mph 19.6 mph N/A   Scattered Clouds
1:55 PM 66.2 °F 51.8 °F 60% 30.06 in 10.0 mi North 10.4 mph 19.6 mph N/A   Scattered Clouds
2:15 PM 66.2 °F 50.0 °F 56% 30.06 in 10.0 mi NNW 11.5 mph - N/A   Scattered Clouds
2:35 PM 66.2 °F 48.2 °F 52% 30.06 in 10.0 mi North 10.4 mph 17.3 mph N/A   Scattered Clouds
2:55 PM 69.8 °F 46.4 °F 43% 30.05 in 10.0 mi North 15.0 mph 18.4 mph N/A   Scattered Clouds
3:15 PM 69.8 °F 46.4 °F 43% 30.05 in 10.0 mi North 11.5 mph - N/A   Scattered Clouds
3:35 PM 69.8 °F 42.8 °F 38% 30.04 in 10.0 mi North 12.7 mph 18.4 mph N/A   Scattered Clouds
3:55 PM 69.8 °F 44.6 °F 40% 30.03 in 10.0 mi NNW 11.5 mph 19.6 mph N/A   Scattered Clouds
4:15 PM 69.8 °F 42.8 °F 38% 30.03 in 10.0 mi North 13.8 mph - N/A   Scattered Clouds
4:35 PM 71.6 °F 44.6 °F 38% 30.02 in 10.0 mi NNW 9.2 mph - N/A   Mostly Cloudy
4:55 PM 69.8 °F 42.8 °F 38% 30.02 in 10.0 mi North 10.4 mph - N/A   Scattered Clouds
5:15 PM 71.6 °F 42.8 °F 35% 30.02 in 10.0 mi North 10.4 mph - N/A   Mostly Cloudy
5:35 PM 68.0 °F 42.8 °F 40% 30.02 in 10.0 mi North 10.4 mph - N/A   Scattered Clouds
5:55 PM 69.8 °F 42.8 °F 38% 30.01 in 10.0 mi North 8.1 mph - N/A   Scattered Clouds
6:15 PM 69.8 °F 42.8 °F 38% 30.01 in 10.0 mi North 6.9 mph - N/A   Clear
6:35 PM 69.8 °F 42.8 °F 38% 30.00 in 10.0 mi North 5.8 mph - N/A   Clear
6:55 PM 68.0 °F 44.6 °F 43% 30.01 in 10.0 mi NW 6.9 mph - N/A   Scattered Clouds
7:15 PM 66.2 °F 44.6 °F 46% 30.00 in 10.0 mi NW 9.2 mph - N/A   Scattered Clouds
7:35 PM 66.2 °F 44.6 °F 46% 30.01 in 10.0 mi NW 5.8 mph - N/A   Clear
7:55 PM 64.4 °F 46.4 °F 52% 30.01 in 10.0 mi WNW 4.6 mph - N/A   Scattered Clouds
8:15 PM 62.6 °F 46.4 °F 55% 30.01 in 10.0 mi WNW 4.6 mph - N/A   Scattered Clouds
8:35 PM 57.2 °F 46.4 °F 67% 30.02 in 10.0 mi West 5.8 mph - N/A   Scattered Clouds
8:55 PM 57.2 °F 46.4 °F 67% 30.02 in 10.0 mi WNW 4.6 mph - N/A   Scattered Clouds
9:15 PM 55.4 °F 46.4 °F 72% 30.02 in 10.0 mi WNW 4.6 mph - N/A   Scattered Clouds
9:35 PM 53.6 °F 46.4 °F 77% 30.02 in 10.0 mi WNW 4.6 mph - N/A   Scattered Clouds
9:55 PM 55.4 °F 44.6 °F 67% 30.03 in 10.0 mi WNW 3.5 mph - N/A   Scattered Clouds
10:15 PM 53.6 °F 46.4 °F 77% 30.04 in 10.0 mi Calm Calm - N/A   Scattered Clouds
10:35 PM 51.8 °F 44.6 °F 76% 30.04 in 10.0 mi Calm Calm - N/A   Scattered Clouds
10:55 PM 53.6 °F 46.4 °F 77% 30.05 in 10.0 mi Calm Calm - N/A   Scattered Clouds
11:15 PM 51.8 °F 46.4 °F 82% 30.05 in 10.0 mi Calm Calm - N/A   Scattered Clouds
11:35 PM 51.8 °F 46.4 °F 82% 30.04 in 10.0 mi Calm Calm - N/A   Scattered Clouds
11:55 PM 50.0 °F 44.6 °F 82% 30.04 in 10.0 mi Calm Calm - N/A   Scattered Clouds